Location: Golden Pond Observatory
(36.7773°N, 88.0631°W)
Time: 02:28:37
(UTC-06:00)

Hubble Space Telescope - Pass Details

Date: 26 November 2019
Orbit: 536 x 540 km, 28.5° (Epoch: 08 December)

Event Time Altitude Azimuth Distance (km) Brightness Sun altitude
Rises 17:09:13 0° 254° (WSW) 2,668 6.9 -6.7°
Reaches altitude 10° 17:11:47 10° 240° (WSW) 1,777 5.1 -7.1°
Maximum altitude 17:15:07 24° 186° (S) 1,125 2.7 -7.8°
Drops below altitude 10° 17:18:28 10° 131° (SE) 1,777 3.1 -8.4°
Enters shadow 17:20:43 - 118° (ESE) 2,552 3.8 -8.8°
